カタログに戻る

DELTA 1 DEB

運用中SSO
NORAD 12250·DEBRIS·🇺🇸 United States

打ち上げ Mar 5, 1978 から Vandenberg Space Force Base

Loading…

次のパス (今後24時間)

TLE

最新Source: Space-Track

元期: Sep 14, 2026, 14:14 UTC

1 12250U 78026CT  26257.59330122  .00000518  00000-0  21546-3 0  9995
2 12250  98.7884 292.7361 0022971 174.1824 338.8772 14.30572603360697

AllMySatでDELTA 1 DEBをリアルタイム追跡

Download on the App Store